TimeEDT,TemperatureF,Dew PointF,Humidity,Sea Level PressureIn,VisibilityMPH,Wind Direction,Wind SpeedMPH,Gust SpeedMPH,PrecipitationIn,Events,Conditions,WindDirDegrees,DateUTC
12:19 AM,53.6,53.6,100,30.06,0.2,NNE,3.5,-,N/A,Fog,Fog,30,2012-10-05 04:19:00
12:54 AM,52.0,52.0,100,30.01,0.2,WSW,4.6,-,N/A,Fog,Fog,250,2012-10-05 04:54:00
1:42 AM,51.8,51.8,100,30.05,0.2,Calm,Calm,-,N/A,Fog,Fog,0,2012-10-05 05:42:00
1:49 AM,51.8,51.8,100,30.05,0.2,Calm,Calm,-,N/A,Fog,Fog,0,2012-10-05 05:49:00
1:54 AM,51.1,50.0,96,30.01,0.2,Calm,Calm,-,N/A,Fog,Fog,0,2012-10-05 05:54:00
2:30 AM,51.8,51.8,100,30.05,0.2,Calm,Calm,-,N/A,Fog,Fog,0,2012-10-05 06:30:00
2:42 AM,51.8,51.8,100,30.05,0.2,Calm,Calm,-,N/A,Fog,Fog,0,2012-10-05 06:42:00
2:54 AM,51.1,51.1,100,30.00,0.2,Calm,Calm,-,N/A,Fog,Fog,0,2012-10-05 06:54:00
3:44 AM,51.8,51.8,100,30.05,0.2,Calm,Calm,-,N/A,Fog,Fog,0,2012-10-05 07:44:00
3:54 AM,51.1,51.1,100,30.00,0.2,Calm,Calm,-,N/A,Fog,Fog,0,2012-10-05 07:54:00
4:54 AM,51.1,51.1,100,30.00,0.2,Calm,Calm,-,N/A,Fog,Fog,0,2012-10-05 08:54:00
5:54 AM,50.0,50.0,100,30.01,0.2,Calm,Calm,-,N/A,Fog,Fog,0,2012-10-05 09:54:00
6:29 AM,50.0,48.2,94,30.05,0.5,Calm,Calm,-,0.01,Fog,Fog,0,2012-10-05 10:29:00
6:35 AM,50.0,48.2,94,30.05,0.2,Calm,Calm,-,0.01,Fog,Fog,0,2012-10-05 10:35:00
6:54 AM,48.9,48.9,100,30.01,0.2,Calm,Calm,-,0.01,Fog,Fog,0,2012-10-05 10:54:00
7:54 AM,50.0,50.0,100,30.02,0.2,Calm,Calm,-,N/A,Fog,Fog,0,2012-10-05 11:54:00
8:17 AM,51.8,51.8,100,30.05,0.2,Calm,Calm,-,N/A,Fog,Fog,0,2012-10-05 12:17:00
8:47 AM,51.8,51.8,100,30.05,0.2,Calm,Calm,-,N/A,Fog,Fog,0,2012-10-05 12:47:00
8:54 AM,53.1,53.1,100,30.02,0.2,Calm,Calm,-,N/A,Fog,Fog,0,2012-10-05 12:54:00
9:28 AM,55.4,55.4,100,30.05,1.0,Calm,Calm,-,N/A,,Overcast,0,2012-10-05 13:28:00
9:34 AM,57.2,57.2,100,30.05,3.0,Calm,Calm,-,N/A,,Mostly Cloudy,0,2012-10-05 13:34:00
9:54 AM,57.9,57.0,97,30.01,7.0,Calm,Calm,-,N/A,,Scattered Clouds,0,2012-10-05 13:54:00
10:54 AM,64.0,57.0,78,30.00,10.0,WSW,5.8,-,N/A,,Clear,250,2012-10-05 14:54:00
11:54 AM,66.0,55.9,70,29.99,10.0,SW,3.5,-,N/A,,Clear,230,2012-10-05 15:54:00
12:54 PM,68.0,55.9,65,29.96,10.0,Calm,Calm,-,N/A,,Clear,0,2012-10-05 16:54:00
1:54 PM,71.1,55.0,57,29.94,10.0,SSW,6.9,-,N/A,,Clear,200,2012-10-05 17:54:00
2:54 PM,73.0,53.1,49,29.91,10.0,WSW,8.1,-,N/A,,Clear,250,2012-10-05 18:54:00
3:54 PM,72.0,55.0,55,29.90,10.0,SW,3.5,-,N/A,,Clear,220,2012-10-05 19:54:00
4:54 PM,71.1,55.0,57,29.90,10.0,SSW,4.6,-,N/A,,Clear,210,2012-10-05 20:54:00
5:54 PM,69.1,55.0,61,29.90,10.0,SSW,3.5,-,N/A,,Partly Cloudy,200,2012-10-05 21:54:00
6:54 PM,64.9,55.9,73,29.91,10.0,West,3.5,-,N/A,,Scattered Clouds,270,2012-10-05 22:54:00
7:54 PM,63.0,55.9,78,29.90,10.0,West,3.5,-,N/A,,Clear,260,2012-10-05 23:54:00
8:54 PM,62.1,57.0,84,29.90,8.0,NNE,3.5,-,N/A,,Mostly Cloudy,30,2012-10-06 00:54:00
9:54 PM,61.0,57.9,90,29.89,8.0,Calm,Calm,-,N/A,,Overcast,0,2012-10-06 01:54:00
10:54 PM,59.0,57.0,93,29.88,7.0,SSE,3.5,-,N/A,,Mostly Cloudy,150,2012-10-06 02:54:00
11:54 PM,57.9,57.0,97,29.87,4.0,Calm,Calm,-,N/A,,Mostly Cloudy,0,2012-10-06 03:54:00